LHBPLZKZ

Guest
Details From LHBP - Ferihegy (Budapest)
To LZKZ - KOSICE
Flight Number -
Tags decoded
Created
Modified
Stats Distance 110 nm / 203 km
Max Altitude 0 ft / 0 m
Waypoints 3
Social Downloads 4
Likes 0
Share VATSIM

Download

Looking for another format? Having issues loading an existing format? Contact us
Advertisement - Login to hide

Notes

Requested: LHBP NORAH KOLUM LZKZ Unmatched points: KOLUM

Route

LHBP NORAH LZKZ

ID Type Via Altitude Latitude Longitude Leg Dist Tot Dist Heading (true) Name
O LHBP APT - 0 ft / 0 m 47.43529˚ 19.26579˚ - 0 nm - Ferihegy (Budapest)
NORAH FIX - 0 ft / 0 m 47.61624˚ 19.80818˚ 24 nm 24 nm 64° / 64° -
O LZKZ APT - 0 ft / 0 m 48.66303˚ 21.24115˚ 85 nm 109 nm 42° / 43° KOSICE

Altitude Profile

Advertisement - Login to hide

LHBP

Details ICAO LHBP (BUD)
Name Ferihegy (Budapest)
Region Hungary
Timezone Europe/Budapest (UTC+1.0)
Stats Elevation 495 ft / 151 m (AMSL)
Location 47.435292° 19.265792°
Runways 3
Magnetic Variation 4.764° E

METAR

LHBP 150430Z 10005KT CAVOK 03/03 Q1000 NOSIG

Decode

TAF

TAF TAF LHBP 142315Z 1500/1524 11006KT 9999 BKN040 TEMPO 1501/1513 2800 RA SHRA BKN004 BKN020TCU BECMG 1507/1509 19009KT BECMG 1510/1512 29010G20KT BECMG 1513/1515 VRB03KT CAVOK TEMPO 1521/1524 4000 RA BR BKN020 OVC040

Decode

Departure Runways

ID Width Length Bearing (true) Bearing (mag) Surface Threshold Offset Overrun Length
13 250 ft / 76 m 6,000 ft / 1,829 m 132.54° 127.78° Unknown 0 ft / 0 m 0 ft / 0 m
13L 196 ft / 60 m 12,487 ft / 3,806 m 132.54° 127.78° Asphalt 0 ft / 0 m 200 ft / 61 m
13R 196 ft / 60 m 10,145 ft / 3,092 m 132.49° 127.73° Asphalt 0 ft / 0 m 197 ft / 60 m
31 250 ft / 76 m 6,000 ft / 1,829 m 312.55° 307.79° Unknown 0 ft / 0 m 0 ft / 0 m
31L 196 ft / 60 m 10,145 ft / 3,092 m 312.51° 307.75° Asphalt 0 ft / 0 m 197 ft / 60 m
31R 196 ft / 60 m 12,487 ft / 3,806 m 312.56° 307.80° Asphalt 0 ft / 0 m 197 ft / 60 m

LZKZ

Details ICAO LZKZ (KSC)
Name KOSICE
Region Slovakia
Timezone Europe/Bratislava (UTC+1.0)
Stats Elevation 755 ft / 230 m (AMSL)
Location 48.663030° 21.241155°
Runways 1
Magnetic Variation 5.331° E

METAR

LZKZ 150430Z 35003KT 1500 -RA BR OVC004 01/01 Q1001

Decode

TAF

TAF AMD LZKZ 150334Z 1503/1600 VRB02KT 4000 -RA BR SCT005 OVC012 TEMPO 1503/1510 1200 -RA BKN002 OVC004 BECMG 1508/1510 22012KT BECMG 1517/1519 36005KT 7000 SCT040 BKN080 TEMPO 1521/1600 01010KT 2500 RASN BKN004 OVC030

Decode

Destination Runways

ID Width Length Bearing (true) Bearing (mag) Surface Threshold Offset Overrun Length
01 148 ft / 45 m 10,174 ft / 3,101 m 13.00° 7.67° Asphalt 0 ft / 0 m 0 ft / 0 m
19 148 ft / 45 m 10,174 ft / 3,101 m 193.00° 187.67° Asphalt 0 ft / 0 m 0 ft / 0 m

Approach Navaids

Runway Type Ident Frequency Range Bearing (true) Bearing (mag) Slope Elevation
01 Localiser KE 109.50 MHz 18 nm / 33 km 13.00° 7.67° - 739 ft / 225 m (AMSL)
01 Glidescope KE 109.50 MHz 10 nm / 19 km 13.00° 7.67° 3.00° 739 ft / 225 m (AMSL)

Popular Alternatives